Regional Weather Roundup
Issued by NWS

Home | Current Version | Previous Version | Graphics & Text | Print | Product List | Glossary On
Versions: 1 2 3 4 5 6 7 8 9 10 11 12 13 14 15 16 17 18 19 20 21 22 23 24 25 26 27 28 29 30 31 32 33 34 35 36 37 38 39 40 41 42 43 44 45 46 47 48 49 50
000
ASUS43 KBIS 271210
RWRND

NORTH DAKOTA REGIONAL WEATHER ROUNDUP
NATIONAL WEATHER SERVICE BISMARCK ND
700 AM CDT WED JUL 27 2016

NOTE: "FAIR" INDICATES FEW OR NO CLOUDS BELOW 12,000 FEET WITH NO
SIGNIFICANT WEATHER AND/OR OBSTRUCTIONS TO VISIBILITY.


NDZ001>003-009>011-017-271300-
NORTHWEST NORTH DAKOTA

CITY           SKY/WX    TMP DP  RH WIND       PRES   REMARKS
WILLISTON      CLOUDY    62  54  74 NE5       30.12F
6HR MIN TEMP:  58; 6HR MAX TEMP:  65;

MINOT          CLEAR     59  55  87 N7        30.11S
MINOT AFB      CLEAR     57  55  92 N2        30.11R
$$

NDZ018>021-031>035-040>046-271300-
SOUTHWEST NORTH DAKOTA

CITY           SKY/WX    TMP DP  RH WIND       PRES   REMARKS
BISMARCK       CLEAR     59  58  96 NE5       30.08F
6HR MIN TEMP:  57; 6HR MAX TEMP:  64;

DICKINSON      PTCLDY    54  53  97 W5        30.12R FOG
GARRISON         N/A     60  60 100 NE5       30.11R
6HR MIN TEMP:  58; 6HR MAX TEMP:  62;

HETTINGER ARPT CLOUDY    58  56  93 N3        30.13S
$$

NDZ004>008-012>016-024-026-027-054-271300-
NORTHEAST NORTH DAKOTA

CITY           SKY/WX    TMP DP  RH WIND       PRES   REMARKS
GRAND FORKS    CLOUDY    61  58  90 NW7       30.04S
GRND FRKS AFB  CLOUDY    60  57  89 N7        30.06R
DEVILS LAKE    CLEAR     60  57  89 N6        30.10R
$$

NDZ022-023-025-028>030-036>039-047>053-271300-
SOUTHEAST NORTH DAKOTA

CITY           SKY/WX    TMP DP  RH WIND       PRES   REMARKS
FARGO          MOCLDY    65  61  87 N10       29.99S
6HR MIN TEMP:  65; 6HR MAX TEMP:  69; 6HR PCP:  0.02;

JAMESTOWN      PTCLDY    61  60  97 NW6       30.06R
$$




USA.gov is the U.S. government's official web portal to all federal, state and local government web resources and services.